{"data":{"norad_id":63404,"intl_designator":"2025-065F","name":"STARLINK-33711","alt_names":[],"object_type":"PAYLOAD","status":"ACTIVE","operator":null,"country":"US","launch_date":"2025-03-31","launch_site_code":"AFETR","launch_vehicle":null,"mission":null,"orbit_class":"UNKNOWN","rcs_meters":null,"size_class":null,"mass_kg":null,"dimensions":null,"purposes":["comms"],"wikipedia_slug":null,"has_3d_model":false,"image_url":null,"decayed_at":null,"tle_current":{"epoch":"2026-09-19T21:05:03.744384Z","epoch_age_seconds":212486,"freshness":"STALE","line1":"1 63404U 25065F   26262.87851556  .00008325  00000+0  31160-3 0  9999","line2":"2 63404  42.9993  89.9724 0001347 269.8519  90.2178 15.27589361 82542","mean_motion":15.27589361,"eccentricity":0.0001347,"inclination_deg":42.9993,"raan_deg":89.9724,"arg_perigee_deg":269.8519,"mean_anomaly_deg":90.2178,"bstar":0.0003116,"rev_number":8254,"period_min":94.266171051187,"perigee_km":482.0968679897,"apogee_km":483.94526397268,"semimajor_km":6861.1580659812,"source":"CELESTRAK","updated_at":"2026-09-21T09:00:34.978739Z"}}}